DW7525 Weather Reports


Display with metric or nautical units.
time (UTC)temp
F
wind
direction
speed
MPH
gust
MPH
rain 1hr
in
rain 24hr
in
rain mn
in
humidity
%
barometer
mb
20260505124823 35 360 3.0 11.0 0.00 0.03 0.02 93 1012.3
20260505124418 35 360 2.0 11.0 0.00 0.03 0.02 93 1012.1
20260505123834 35 360 2.0 8.0 0.00 0.03 0.02 93 1012.0
20260505123435 35 360 4.0 11.0 0.00 0.03 0.02 92 1011.9
20260505123332 35 360 4.0 11.0 0.00 0.03 0.02 92 1011.9
20260505122827 35 360 3.0 11.0 0.00 0.03 0.02 93 1011.9
20260505122347 36 360 1.0 7.0 0.00 0.03 0.02 92 1011.8
20260505121826 36 360 2.0 9.0 0.00 0.03 0.02 92 1011.9
20260505121342 36 360 2.0 9.0 0.00 0.03 0.02 92 1012.0
20260505120857 36 360 1.0 7.0 0.00 0.03 0.02 92 1012.0
20260505120416 37 360 3.0 8.0 0.00 0.03 0.02 92 1011.9
20260505115848 37 18 2.0 11.0 0.00 0.03 0.02 92 1011.9
20260505115326 38 360 3.0 11.0 0.00 0.03 0.02 92 1011.9
20260505114826 38 17 2.0 10.0 0.00 0.03 0.02 92 1011.8
20260505114322 38 360 4.0 8.0 0.00 0.03 0.02 92 1011.8
20260505113858 39 360 2.0 8.0 0.00 0.03 0.02 92 1011.8
20260505113415 39 360 1.0 8.0 0.00 0.03 0.02 92 1011.7
20260505113333 39 360 1.0 8.0 0.00 0.03 0.02 92 1011.7
20260505112847 39 360 1.0 8.0 0.00 0.03 0.02 92 1011.7
20260505112402 40 360 2.0 10.0 0.00 0.03 0.02 92 1011.6
20260505112319 40 360 2.0 10.0 0.00 0.03 0.02 92 1011.6
20260505111917 40 360 4.0 10.0 0.00 0.03 0.02 92 1011.6
20260505111410 40 360 1.0 6.0 0.00 0.03 0.02 92 1011.5
20260505110904 40 360 1.0 8.0 0.00 0.03 0.02 92 1011.3
20260505110822 40 360 1.0 8.0 0.00 0.03 0.02 92 1011.3
20260505110337 41 360 1.0 8.0 0.00 0.03 0.02 92 1011.3
20260505101821 45 360 0.0 0.0 0.00 0.03 0.02 89 1010.4
20260505101417 44 360 0.0 0.0 0.00 0.03 0.02 89 1010.5
20260505101335 44 360 0.0 0.0 0.00 0.03 0.02 89 1010.5
20260505100831 45 360 0.0 0.0 0.00 0.03 0.02 90 1010.3
20260505100428 44 360 0.0 2.0 0.00 0.03 0.02 90 1010.4
20260505100324 44 360 0.0 2.0 0.00 0.03 0.02 90 1010.4
20260505095902 44 360 0.0 2.0 0.00 0.03 0.02 89 1010.3
20260505095819 44 360 0.0 2.0 0.00 0.03 0.02 89 1010.3
20260505095411 44 360 0.0 2.0 0.00 0.03 0.02 89 1010.5
20260505094824 44 360 0.0 1.0 0.00 0.03 0.02 89 1010.5
20260505094318 44 360 0.0 2.0 0.00 0.03 0.02 89 1010.2
20260505093938 44 360 0.0 2.0 0.00 0.03 0.02 89 1010.1
20260505093834 44 360 0.0 2.0 0.00 0.03 0.02 89 1010.1
20260505093331 44 360 0.0 3.0 0.00 0.03 0.02 90 1010.1
20260505092827 44 360 0.0 3.0 0.00 0.03 0.02 90 1010.2
20260505092343 44 360 1.0 3.0 0.00 0.03 0.02 90 1010.3
20260505091918 44 360 0.0 0.0 0.00 0.03 0.02 90 1010.5
20260505091836 44 360 0.0 0.0 0.00 0.03 0.02 90 1010.5
20260505091353 44 360 0.0 3.0 0.00 0.03 0.02 90 1010.5
20260505090828 44 360 1.0 4.0 0.00 0.03 0.02 90 1010.4
20260505090402 44 360 1.0 3.0 0.01 0.03 0.02 89 1010.4
20260505090320 44 360 1.0 3.0 0.01 0.03 0.02 89 1010.4
20260505085839 45 360 1.0 2.0 0.01 0.03 0.02 89 1010.4
20260505085335 45 360 0.0 2.0 0.01 0.03 0.02 89 1010.3
20260505084832 45 360 0.0 1.0 0.01 0.03 0.02 88 1010.2
20260505084328 45 360 0.0 0.0 0.01 0.03 0.02 89 1010.2
20260505083825 45 360 0.0 3.0 0.01 0.03 0.02 88 1010.3
20260505083341 45 360 0.0 3.0 0.01 0.03 0.02 88 1010.1
20260505082838 45 360 1.0 3.0 0.01 0.03 0.02 88 1010.0
20260505082333 45 360 1.0 3.0 0.01 0.03 0.02 88 1010.4
20260505081832 45 360 1.0 2.0 0.01 0.03 0.02 88 1010.5
20260505081328 45 360 0.0 3.0 0.01 0.03 0.02 89 1010.8
20260505080847 45 360 0.0 3.0 0.01 0.03 0.02 89 1010.9
20260505080438 45 360 0.0 0.0 0.00 0.02 0.01 89 1010.9
20260505080356 45 360 0.0 0.0 0.00 0.02 0.01 89 1010.9
20260505075833 45 360 0.0 1.0 0.00 0.02 0.01 89 1010.9
20260505075410 45 360 0.0 1.0 0.00 0.02 0.01 89 1011.0
20260505074925 44 360 0.0 1.0 0.00 0.02 0.01 89 1011.0
20260505074843 44 360 0.0 1.0 0.00 0.02 0.01 89 1011.0
20260505074319 44 360 0.0 4.0 0.00 0.02 0.01 89 1011.1
20260505073858 44 360 1.0 6.0 0.00 0.02 0.01 88 1011.1
20260505073816 44 360 1.0 6.0 0.00 0.02 0.01 88 1011.1
20260505073358 44 360 1.0 6.0 0.00 0.02 0.01 89 1011.3
20260505072853 45 360 2.0 7.0 0.00 0.02 0.01 90 1011.4
20260505072348 45 360 2.0 7.0 0.00 0.02 0.01 91 1011.3
20260505071824 45 360 3.0 6.0 0.00 0.02 0.01 91 1011.5
20260505071404 45 360 2.0 5.0 0.01 0.02 0.01 91 1011.5
20260505070838 45 360 2.0 7.0 0.01 0.02 0.01 91 1011.5
20260505070412 45 360 2.0 7.0 0.01 0.02 0.01 91 1011.6
20260505070330 45 360 2.0 7.0 0.01 0.02 0.01 91 1011.6
20260505065929 45 360 2.0 5.0 0.01 0.02 0.01 90 1011.6
20260505065405 45 360 3.0 5.0 0.01 0.02 0.01 90 1011.7
20260505064904 45 360 2.0 4.0 0.01 0.02 0.01 91 1011.9
20260505064319 45 360 1.0 3.0 0.01 0.02 0.01 90 1011.9
20260505063915 46 360 0.0 2.0 0.01 0.02 0.01 90 1011.9
20260505063352 46 360 0.0 0.0 0.01 0.02 0.01 90 1011.9
20260505062851 46 360 0.0 0.0 0.01 0.02 0.01 91 1011.9
20260505062348 46 360 0.0 0.0 0.01 0.02 0.01 91 1011.9
20260505061824 46 360 0.0 0.0 0.01 0.02 0.01 91 1011.9
20260505061321 45 360 0.0 1.0 0.00 0.01 0.00 91 1011.9
20260505060900 45 360 0.0 1.0 0.00 0.01 0.00 91 1012.0
20260505060317 45 360 0.0 0.0 0.00 0.01 0.00 91 1011.9
20260505055853 45 325 0.0 0.0 0.00 0.01 0.01 91 1011.9
20260505055326 45 325 0.0 3.0 0.00 0.01 0.01 91 1011.9
20260505054844 45 325 0.0 4.0 0.00 0.01 0.01 91 1012.0
20260505054403 45 300 2.0 4.0 0.00 0.01 0.01 91 1012.0
20260505053902 45 304 1.0 3.0 0.00 0.01 0.01 91 1011.7
20260505053317 45 327 0.0 3.0 0.00 0.01 0.01 91 1011.5
20260505052916 45 331 0.0 3.0 0.00 0.01 0.01 91 1011.6
20260505052833 45 331 0.0 3.0 0.00 0.01 0.01 91 1011.6
20260505052331 45 333 0.0 0.0 0.00 0.01 0.01 90 1011.7
20260505051928 45 333 0.0 0.0 0.00 0.01 0.01 90 1011.9
20260505051825 45 333 0.0 0.0 0.00 0.01 0.01 90 1011.9
20260505051340 45 333 0.0 0.0 0.00 0.01 0.01 91 1012.1
20260505050816 45 333 0.0 2.0 0.01 0.01 0.01 90 1012.5
20260505050413 45 333 0.0 3.0 0.01 0.01 0.01 90 1012.5
20260505041350 46 336 0.0 0.0 0.01 0.01 0.01 86 1012.1
20260505040829 46 337 0.0 0.0 0.00 0.00 0.00 85 1012.1
20260505040317 46 336 0.0 4.0 0.00 0.00 0.00 84 1012.1
20260505035934 47 336 0.0 4.0 0.00 0.00 0.00 84 1011.9
20260505035830 47 336 0.0 4.0 0.00 0.00 0.00 84 1011.9
20260505035402 47 336 1.0 5.0 0.00 0.00 0.00 84 1011.8
20260505034856 47 336 1.0 5.0 0.00 0.00 0.00 83 1011.9
20260505034351 47 336 1.0 5.0 0.00 0.00 0.00 82 1011.9
20260505033927 48 313 1.0 5.0 0.00 0.00 0.00 81 1012.0
20260505033823 48 313 1.0 5.0 0.00 0.00 0.00 81 1012.0
20260505033342 48 304 1.0 5.0 0.00 0.00 0.00 79 1011.9
20260505032837 49 360 2.0 6.0 0.00 0.00 0.00 77 1011.8
20260505032436 49 360 3.0 6.0 0.00 0.00 0.00 75 1011.8
20260505032333 49 360 3.0 6.0 0.00 0.00 0.00 75 1011.8
20260505031910 49 360 2.0 4.0 0.00 0.00 0.00 73 1011.7
20260505031828 49 360 2.0 4.0 0.00 0.00 0.00 73 1011.7
20260505031346 49 360 1.0 3.0 0.00 0.00 0.00 73 1011.6
20260505030825 49 360 1.0 4.0 0.00 0.00 0.00 73 1011.6
20260505030402 49 360 2.0 4.0 0.00 0.00 0.00 72 1011.5
20260505025856 49 360 2.0 3.0 0.00 0.00 0.00 73 1011.3
20260505025352 49 360 0.0 3.0 0.00 0.00 0.00 72 1011.3
20260505024846 50 360 1.0 3.0 0.00 0.00 0.00 72 1011.2
20260505024340 50 360 0.0 2.0 0.00 0.00 0.00 72 1011.1
20260505023838 50 360 0.0 0.0 0.00 0.00 0.00 71 1011.1
20260505023410 50 360 0.0 0.0 0.00 0.00 0.00 70 1011.0
20260505022929 50 360 0.0 0.0 0.00 0.00 0.00 70 1010.9
20260505022847 50 360 0.0 0.0 0.00 0.00 0.00 70 1010.9
20260505022323 50 360 0.0 0.0 0.00 0.00 0.00 70 1010.7
20260505021819 50 360 0.0 0.0 0.00 0.00 0.00 69 1010.8
20260505021335 50 360 0.0 0.0 0.00 0.00 0.00 69 1010.7
20260505020932 51 360 0.0 1.0 0.00 0.00 0.00 69 1010.6
20260505020346 51 360 0.0 0.0 0.00 0.00 0.00 69 1010.8
20260505015844 51 360 0.0 0.0 0.00 0.00 0.00 69 1010.8
20260505015343 51 360 0.0 0.0 0.00 0.00 0.00 69 1010.7
20260505014859 51 360 0.0 0.0 0.00 0.00 0.00 69 1010.8
20260505014335 51 360 0.0 0.0 0.00 0.00 0.00 68 1010.7
20260505013852 51 360 0.0 2.0 0.00 0.00 0.00 68 1010.3
20260505013432 52 360 0.0 5.0 0.00 0.00 0.00 67 1010.5
20260505013350 52 360 0.0 5.0 0.00 0.00 0.00 67 1010.5
20260505012846 52 360 0.0 5.0 0.00 0.00 0.00 65 1010.5
20260505012346 52 360 1.0 4.0 0.00 0.00 0.00 65 1010.7
20260505011922 53 360 1.0 4.0 0.00 0.00 0.00 63 1010.5
20260505011355 53 360 0.0 3.0 0.00 0.00 0.00 60 1010.6
20260505010851 54 360 0.0 3.0 0.00 0.00 0.00 57 1010.6
20260505010347 55 360 0.0 5.0 0.00 0.00 0.00 57 1010.5
20260505005826 55 360 1.0 9.0 0.00 0.00 0.00 51 1010.5
20260505005322 56 360 2.0 9.0 0.00 0.00 0.00 49 1010.3
20260505004922 56 320 2.0 7.0 0.00 0.00 0.00 46 1010.3
20260505004818 56 320 2.0 7.0 0.00 0.00 0.00 46 1010.3
20260505004335 56 360 1.0 6.0 0.00 0.00 0.00 45 1010.2
20260505003853 56 360 0.0 6.0 0.00 0.00 0.00 44 1010.2
20260505003328 56 360 3.0 6.0 0.00 0.00 0.00 44 1010.1
20260505002826 56 360 3.0 9.0 0.00 0.00 0.00 45 1010.0
20260505002326 56 360 4.0 9.0 0.00 0.00 0.00 45 1010.0
20260505001919 56 360 3.0 12.0 0.00 0.00 0.00 45 1009.9
20260505001417 56 360 3.0 12.0 0.00 0.00 0.00 45 1009.8
20260505000831 56 360 3.0 10.0 0.00 0.00 0.00 45 1009.8
20260505000328 57 360 5.0 10.0 0.00 0.00 0.00 43 1009.6
20260504235925 57 360 4.0 9.0 0.00 0.00 0.00 41 1009.6
20260504235822 57 360 4.0 9.0 0.00 0.00 0.00 41 1009.6
20260504235359 58 360 2.0 10.0 0.00 0.00 0.00 41 1009.6
20260504235317 58 360 2.0 10.0 0.00 0.00 0.00 41 1009.6
20260504234834 58 360 4.0 10.0 0.00 0.00 0.00 39 1009.6
20260504234330 59 360 3.0 7.0 0.00 0.00 0.00 38 1009.6
20260504233906 60 360 3.0 7.0 0.00 0.00 0.00 38 1009.6
20260504233342 60 360 2.0 7.0 0.00 0.00 0.00 35 1009.6
20260504232818 61 360 1.0 10.0 0.00 0.00 0.00 35 1009.4
20260504232436 61 68 3.0 10.0 0.00 0.00 0.00 33 1009.3
20260504232333 61 68 3.0 10.0 0.00 0.00 0.00 33 1009.3
20260504231828 61 52 2.0 11.0 0.00 0.00 0.00 33 1009.6
20260504231326 62 65 1.0 15.0 0.00 0.00 0.00 33 1009.3
20260504230922 62 360 4.0 15.0 0.00 0.00 0.00 32 1009.0
20260504230818 62 360 4.0 15.0 0.00 0.00 0.00 32 1009.0
20260504230415 62 360 3.0 9.0 0.00 0.00 0.00 32 1008.5
20260504225829 63 360 4.0 12.0 0.00 0.00 0.00 31 1008.4
20260504225347 63 360 5.0 12.0 0.00 0.00 0.00 29 1008.2
20260504224821 65 335 4.0 7.0 0.00 0.00 0.00 28 1008.1
20260504224318 66 360 1.0 3.0 0.00 0.00 0.00 27 1008.1
20260504223932 66 360 0.0 3.0 0.00 0.00 0.00 27 1007.9
20260504223849 66 360 0.0 3.0 0.00 0.00 0.00 27 1007.9
20260504223325 66 360 0.0 3.0 0.00 0.00 0.00 27 1007.8
20260504222829 66 360 0.0 6.0 0.00 0.00 0.00 26 1007.9
20260504222326 66 360 3.0 6.0 0.00 0.00 0.00 27 1008.0
20260504221822 66 360 2.0 5.0 0.00 0.00 0.00 26 1008.0
20260504221342 66 360 1.0 3.0 0.00 0.00 0.00 27 1007.9
20260504220857 66 360 1.0 4.0 0.00 0.00 0.00 27 1008.0
20260504220411 66 360 0.0 6.0 0.00 0.00 0.00 28 1008.0
20260504220329 66 360 0.0 6.0 0.00 0.00 0.00 28 1008.0
20260504215906 66 360 2.0 6.0 0.00 0.00 0.00 27 1008.0
20260504215824 66 360 2.0 6.0 0.00 0.00 0.00 27 1008.0
20260504215317 66 360 0.0 2.0 0.00 0.00 0.00 28 1008.2
20260504214914 66 360 0.0 4.0 0.00 0.00 0.00 28 1008.2
20260504214349 66 360 0.0 4.0 0.00 0.00 0.00 27 1008.2
20260504213907 66 360 0.0 4.0 0.00 0.00 0.00 27 1008.3
20260504213324 66 360 0.0 6.0 0.00 0.00 0.00 28 1008.4
20260504212822 66 360 1.0 6.0 0.00 0.00 0.00 28 1008.4
20260504212418 66 360 2.0 7.0 0.00 0.00 0.00 26 1008.4
20260504212335 66 360 2.0 7.0 0.00 0.00 0.00 26 1008.4
20260504211833 66 360 2.0 7.0 0.00 0.00 0.00 27 1008.4
20260504211326 67 360 2.0 7.0 0.00 0.00 0.00 27 1008.4
20260504210906 67 360 2.0 7.0 0.00 0.00 0.00 26 1008.4
20260504210322 66 360 2.0 13.0 0.00 0.00 0.00 26 1008.6
20260504205817 66 360 3.0 13.0 0.00 0.00 0.00 27 1008.5
20260504205332 67 360 1.0 7.0 0.00 0.00 0.00 25 1008.6
20260504204833 67 360 2.0 7.0 0.00 0.00 0.00 24 1008.6
20260504204349 69 360 2.0 7.0 0.00 0.00 0.00 24 1008.7
20260504203927 70 360 3.0 9.0 0.00 0.00 0.00 25 1008.5
20260504203823 70 360 3.0 9.0 0.00 0.00 0.00 25 1008.5
20260504203423 70 360 5.0 11.0 0.00 0.00 0.00 24 1008.6
20260504202934 71 360 3.0 11.0 0.00 0.00 0.00 23 1008.6
20260504202852 71 360 3.0 11.0 0.00 0.00 0.00 23 1008.6
20260504202350 70 360 2.0 8.0 0.00 0.00 0.00 25 1008.5
20260504201824 69 360 2.0 8.0 0.00 0.00 0.00 26 1008.7
20260504201324 68 5 2.0 8.0 0.00 0.00 0.00 25 1008.8
20260504200820 68 360 3.0 7.0 0.00 0.00 0.00 24 1008.9
20260504200318 68 360 1.0 8.0 0.00 0.00 0.00 24 1008.8
20260504195855 69 360 2.0 8.0 0.00 0.00 0.00 24 1008.9
20260504195431 69 5 1.0 5.0 0.00 0.00 0.00 24 1008.9
20260504195327 69 5 1.0 5.0 0.00 0.00 0.00 24 1008.9
20260504194828 69 5 2.0 7.0 0.00 0.00 0.00 25 1008.8
20260504194327 69 9 1.0 7.0 0.00 0.00 0.00 25 1008.8
20260504193828 69 5 3.0 9.0 0.00 0.00 0.00 24 1008.8
20260504193325 68 360 3.0 9.0 0.00 0.00 0.00 27 1008.7
20260504192821 67 9 2.0 8.0 0.00 0.00 0.00 25 1008.8
20260504192358 67 5 3.0 13.0 0.00 0.00 0.00 25 1008.9
20260504191912 68 13 5.0 13.0 0.00 0.00 0.00 25 1008.9
20260504191326 68 5 2.0 11.0 0.00 0.00 0.00 26 1008.7
20260504190821 68 10 5.0 11.0 0.00 0.00 0.00 22 1008.5
20260504190422 69 5 3.0 8.0 0.00 0.00 0.00 23 1008.4
20260504185914 70 5 2.0 8.0 0.00 0.00 0.00 21 1008.4
20260504185347 70 360 3.0 10.0 0.00 0.00 0.00 21 1008.4
20260504184907 71 360 5.0 10.0 0.00 0.00 0.00 21 1008.5
20260504184321 73 360 4.0 8.0 0.00 0.00 0.00 21 1008.4
20260504183921 73 360 1.0 10.0 0.00 0.00 0.00 19 1008.6
20260504183354 73 9 5.0 10.0 0.00 0.00 0.00 18 1008.6
20260504182905 74 9 3.0 13.0 0.00 0.00 0.00 21 1008.6
20260504182323 74 9 6.0 13.0 0.00 0.00 0.00 19 1008.7
20260504181823 74 5 3.0 8.0 0.00 0.00 0.00 20 1008.7
20260504181341 73 337 1.0 11.0 0.00 0.00 0.00 22 1008.8
20260504180854 73 360 1.0 11.0 0.00 0.00 0.00 20 1008.8
20260504180329 72 9 4.0 7.0 0.00 0.00 0.00 21 1008.9
20260504175825 72 9 0.0 5.0 0.00 0.00 0.00 20 1008.9
20260504175402 72 9 1.0 7.0 0.00 0.00 0.00 25 1009.0
20260504175319 72 9 1.0 7.0 0.00 0.00 0.00 25 1009.0
20260504174856 72 9 1.0 7.0 0.00 0.00 0.00 21 1009.0
20260504174411 72 9 2.0 12.0 0.00 0.00 0.00 22 1009.3
20260504173845 72 9 2.0 7.0 0.00 0.00 0.00 22 1009.4
20260504173342 73 9 3.0 8.0 0.00 0.00 0.00 23 1009.5
20260504172818 73 9 2.0 8.0 0.00 0.00 0.00 20 1009.7
20260504172415 72 9 2.0 8.0 0.00 0.00 0.00 23 1009.7
20260504171833 71 5 2.0 8.0 0.00 0.00 0.00 24 1009.8
20260504171411 71 9 1.0 5.0 0.00 0.00 0.00 22 1009.8
20260504171329 71 9 1.0 5.0 0.00 0.00 0.00 22 1009.8
20260504170906 71 11 1.0 7.0 0.00 0.00 0.00 24 1009.9
20260504170402 70 11 3.0 7.0 0.00 0.00 0.00 24 1010.0
20260504160425 69 5 2.0 8.0 0.00 0.01 0.00 25 1010.4
20260504160322 69 5 2.0 8.0 0.00 0.01 0.00 25 1010.4
20260504150915 65 300 3.0 7.0 0.00 0.01 0.00 28 1010.9
20260504150340 64 321 2.0 7.0 0.00 0.01 0.00 27 1011.0
20260504141334 57 360 0.0 0.0 0.00 0.01 0.00 41 1011.0
20260504140909 58 360 0.0 0.0 0.00 0.01 0.00 40 1010.9
20260504140323 59 360 0.0 0.0 0.00 0.01 0.00 41 1010.8